DW6964 Weather Reports


time (UTC)temp
F
wind
direction
speed
knots
gust
knots
rain 1hr
in
rain 24hr
in
rain mn
in
humidity
%
barometer
mb
20260506201515 47 0.0 1.7 0.04 1.10 1.09 94 1005.0
20260506200656 47 236 0.0 2.6 0.03 1.08 1.07 94 1005.2
20260506195515 47 231 0.9 1.7 0.05 1.08 1.06 94 1005.2
20260506194515 47 218 0.9 2.6 0.10 1.07 1.05 94 1005.1
20260506193535 48 216 0.0 2.6 0.15 1.07 1.05 94 1005.1
20260506192515 48 160 0.0 3.5 0.21 1.07 1.05 94 1005.0
20260506191535 48 231 0.9 2.6 0.23 1.07 1.05 95 1005.0
20260506190515 49 231 0.0 1.7 0.24 1.06 1.04 95 1005.0
20260506185515 49 231 0.0 1.7 0.22 1.03 1.01 95 1004.9
20260506184535 49 231 0.9 3.5 0.18 0.97 0.95 95 1004.9
20260506183537 49 230 0.9 2.6 0.14 0.92 0.90 95 1004.9
20260506182517 49 279 0.9 2.6 0.11 0.86 0.84 95 1004.8
20260506181517 50 279 0.0 2.6 0.10 0.84 0.82 95 1004.8
20260506180537 49 0.0 1.7 0.10 0.82 0.80 95 1004.9
20260506175517 50 279 0.0 4.3 0.13 0.81 0.79 94 1004.9
20260506174516 50 256 0.9 2.6 0.14 0.79 0.77 95 1004.9
20260506173516 50 256 0.9 2.6 0.15 0.78 0.76 94 1004.8
20260506172516 51 260 0.9 6.1 0.15 0.75 0.73 94 1005.1
20260506171516 51 292 0.0 1.7 0.17 0.74 0.72 95 1005.0
20260506170516 51 292 0.0 1.7 0.18 0.72 0.70 95 1005.1
20260506165516 51 292 0.0 1.7 0.17 0.68 0.66 95 1005.3
20260506164516 51 292 0.0 0.9 0.16 0.65 0.63 94 1005.4
20260506163537 52 293 0.0 1.7 0.16 0.63 0.61 94 1005.5
20260506162516 52 294 0.0 2.6 0.16 0.60 0.58 94 1005.6
20260506161516 52 294 0.0 2.6 0.15 0.57 0.55 94 1005.8
20260506160516 53 51 0.0 1.7 0.14 0.54 0.52 94 1005.9
20260506155516 54 342 0.0 0.9 0.14 0.51 0.49 94 1006.1
20260506154516 54 305 0.0 1.7 0.15 0.49 0.47 94 1006.1
20260506153536 54 0.0 0.9 0.16 0.47 0.45 95 1006.1
20260506152517 55 305 0.0 1.7 0.16 0.44 0.42 94 1006.1
20260506151536 55 0.0 0.0 0.16 0.42 0.40 95 1006.3
20260506150516 55 305 0.0 0.9 0.17 0.40 0.38 95 1006.6
20260506145516 55 305 0.0 0.9 0.16 0.37 0.35 94 1006.6
20260506144516 55 305 0.0 0.9 0.16 0.34 0.32 94 1006.7
20260506143536 56 305 0.0 1.7 0.14 0.31 0.29 94 1006.9
20260506142536 56 305 0.0 0.9 0.12 0.28 0.26 95 1007.2
20260506141516 57 305 0.0 0.9 0.13 0.26 0.24 95 1007.3
20260506140516 57 305 0.0 1.7 0.11 0.23 0.21 95 1007.0
20260506135536 57 0.0 0.0 0.11 0.21 0.19 95 1006.8
20260506134516 56 0.0 0.0 0.09 0.18 0.16 95 1006.7
20260506133536 56 0.0 0.0 0.10 0.17 0.15 95 1006.8
20260506132516 56 0.0 0.0 0.09 0.16 0.14 95 1006.7
20260506131516 56 0.0 0.0 0.07 0.13 0.11 95 1006.6
20260506130516 56 0.0 0.0 0.06 0.12 0.10 95 1006.8
20260506125536 56 0.0 0.0 0.04 0.10 0.08 95 1007.0
20260506124516 56 0.0 0.9 0.04 0.09 0.07 95 1007.2
20260506123516 56 0.0 0.0 0.02 0.07 0.05 94 1007.3
20260506122515 56 0.0 0.0 0.02 0.07 0.05 94 1007.5
20260506121515 56 0.0 0.0 0.01 0.06 0.04 95 1007.6
20260506120516 56 0.0 0.0 0.01 0.06 0.04 95 1007.4
20260506115536 56 0.0 0.0 0.01 0.06 0.04 94 1007.0
20260506114515 55 0.0 0.0 0.00 0.05 0.03 94 1006.8
20260506113556 55 0.0 0.0 0.00 0.05 0.03 94 1006.8
20260506112515 55 305 0.0 1.7 0.00 0.05 0.03 95 1007.1
20260506111515 55 0.0 0.0 0.00 0.05 0.03 95 1007.1
20260506110515 55 0.0 0.0 0.00 0.05 0.03 95 1007.2
20260506105515 55 0.0 0.0 0.00 0.05 0.03 94 1006.9
20260506104515 55 0.0 0.0 0.00 0.05 0.03 94 1006.8
20260506103535 55 0.0 0.0 0.00 0.05 0.03 94 1006.8
20260506102515 55 0.0 0.0 0.00 0.05 0.03 94 1006.8
20260506101515 55 0.0 0.9 0.00 0.05 0.03 94 1006.3
20260506100515 54 0.0 0.0 0.00 0.05 0.03 94 1006.6
20260506095515 54 0.0 0.0 0.00 0.05 0.03 94 1006.6
20260506094535 54 0.0 0.0 0.00 0.05 0.03 94 1006.6
20260506093515 54 0.0 0.0 0.00 0.05 0.03 94 1006.5
20260506092515 54 0.0 0.9 0.00 0.05 0.03 93 1006.6
20260506091515 55 0.0 0.0 0.00 0.05 0.03 93 1006.7
20260506090515 55 0.0 0.0 0.00 0.05 0.03 93 1006.5
20260506085515 55 0.0 0.0 0.00 0.05 0.03 93 1006.8
20260506084515 55 0.0 0.0 0.00 0.05 0.03 93 1006.8
20260506083515 55 0.0 0.0 0.00 0.05 0.03 92 1007.0
20260506082515 55 0.0 0.0 0.00 0.05 0.03 93 1007.1
20260506081535 56 0.0 0.0 0.00 0.05 0.03 92 1007.1
20260506080514 56 0.0 0.0 0.00 0.05 0.03 93 1007.3
20260506073515 57 0.0 0.0 0.00 0.05 0.03 93 1007.7
20260506072537 57 310 0.0 0.9 0.00 0.05 0.03 93 1007.5
20260506071535 57 310 0.0 0.9 0.00 0.05 0.03 93 1007.6
20260506070516 57 0.0 0.0 0.00 0.05 0.03 93 1007.6
20260506062517 58 0.0 0.0 0.00 0.05 0.03 93 1007.9
20260506061516 58 0.0 0.0 0.00 0.05 0.03 92 1007.8
20260506060516 58 0.0 0.0 0.00 0.05 0.03 92 1007.6
20260506050516 59 0.0 0.0 0.03 0.05 0.03 91 1008.1
20260506044516 60 0.0 0.0 0.02 0.04 0.02 90 1008.5
20260506043516 60 310 0.0 0.9 0.02 0.04 0.02 89 1008.2
20260506042516 60 0.0 0.9 0.01 0.03 0.01 89 1007.9
20260506041516 60 310 0.0 1.7 0.00 0.02 0.00 88 1008.0
20260506040516 60 0.0 0.0 0.01 0.02 0.00 87 1007.9
20260506035515 60 310 0.0 1.7 0.01 0.02 0.02 87 1008.0
20260506034535 60 310 0.0 1.7 0.01 0.02 0.02 87 1008.0
20260506033515 60 310 0.0 0.9 0.01 0.02 0.02 86 1007.8
20260506032535 60 0.0 0.0 0.01 0.02 0.02 86 1007.7
20260506031515 60 0.0 0.0 0.01 0.02 0.02 85 1007.5
20260506030516 61 0.0 0.0 0.00 0.01 0.01 83 1007.4
20260506025517 61 0.0 0.0 0.00 0.01 0.01 83 1007.3
20260506024517 61 0.0 0.0 0.00 0.01 0.01 83 1007.2
20260506023517 61 0.0 0.0 0.00 0.01 0.01 83 1007.3
20260506022516 61 0.0 0.9 0.00 0.01 0.01 83 1007.2
20260506021537 61 0.0 0.0 0.00 0.01 0.01 84 1007.3
20260506020517 61 0.0 0.9 0.00 0.01 0.01 83 1007.0
20260506015516 61 0.0 0.0 0.00 0.01 0.01 84 1007.0
20260506014517 61 310 0.0 0.9 0.00 0.01 0.01 83 1006.9
20260506013517 61 0.0 0.0 0.00 0.01 0.01 84 1006.7
20260506012516 61 0.0 0.9 0.00 0.01 0.01 83 1006.6
20260506011537 61 0.0 0.0 0.00 0.01 0.01 83 1006.6
20260506010537 61 310 0.0 1.7 0.00 0.01 0.01 82 1006.6
20260506005516 61 0.0 0.9 0.00 0.01 0.01 82 1006.4
20260506004537 61 310 0.0 2.6 0.00 0.01 0.01 82 1006.1
20260506003516 61 0.0 0.9 0.00 0.01 0.01 82 1005.9
20260506002516 61 310 0.0 0.9 0.00 0.01 0.01 82 1005.8
20260506001516 62 310 0.0 0.9 0.00 0.01 0.01 81 1005.7
20260506000536 62 0.0 0.0 0.00 0.01 0.01 80 1005.6
20260505235516 63 0.0 0.0 0.00 0.01 0.01 79 1005.7
20260505234516 64 0.0 0.9 0.00 0.01 0.01 76 1005.7
20260505233557 64 310 0.0 0.9 0.00 0.01 0.01 75 1005.6
20260505232516 65 0.0 0.9 0.00 0.01 0.01 73 1005.5
20260505231536 65 310 0.0 0.9 0.00 0.01 0.01 71 1005.4
20260505230556 66 310 0.0 1.7 0.00 0.01 0.01 69 1005.3
20260505225516 67 309 0.0 1.7 0.00 0.01 0.01 66 1005.2
20260505224516 67 301 0.0 5.2 0.00 0.01 0.01 63 1005.4
20260505223516 68 264 1.7 7.8 0.00 0.01 0.01 60 1005.7
20260505222516 68 261 1.7 7.0 0.00 0.01 0.01 60 1005.9
20260505221516 68 279 1.7 7.0 0.00 0.01 0.01 60 1005.7
20260505220516 67 85 0.9 4.3 0.00 0.01 0.01 64 1005.5
20260505215516 68 208 0.0 2.6 0.00 0.01 0.01 63 1005.2
20260505214515 68 208 0.9 1.7 0.00 0.01 0.01 61 1004.7
20260505213516 68 248 0.0 7.0 0.00 0.01 0.01 63 1004.9
20260505212516 68 270 2.6 8.7 0.00 0.01 0.01 68 1005.0
20260505211516 69 278 0.0 1.7 0.00 0.01 0.01 67 1004.7
20260505210556 69 278 0.0 2.6 0.00 0.01 0.01 66 1004.3
20260505205516 69 278 0.0 1.7 0.01 0.01 0.01 65 1003.5
20260505204516 69 203 0.9 3.5 0.01 0.01 0.01 63 1003.4
20260505203515 68 150 0.9 2.6 0.01 0.01 0.01 65 1003.4
20260505202515 67 114 0.9 1.7 0.01 0.01 0.01 72 1003.6